CW5619 Weather Reports


Display with metric or nautical units.
time (UTC)temp
F
wind
direction
speed
MPH
gust
MPH
rain 1hr
in
rain 24hr
in
rain mn
in
humidity
%
barometer
mb
20190418203903 91 13 5.0 7.0 0.00 0.00 0.00 11 1017.9
20190418203404 91 357 3.0 6.0 0.00 0.00 0.00 12 1017.9
20190418202904 91 349 2.0 5.0 0.00 0.00 0.00 13 1017.9
20190418202403 90 294 1.0 6.0 0.00 0.00 0.00 13 1018.1
20190418201903 90 302 2.0 6.0 0.00 0.00 0.00 13 1018.1
20190418201403 90 330 2.0 8.0 0.00 0.00 0.00 13 1018.1
20190418200904 90 30 2.0 10.0 0.00 0.00 0.00 13 1018.3
20190418200404 90 48 5.0 10.0 0.00 0.00 0.00 13 1018.3
20190418195904 90 321 1.0 7.0 0.00 0.00 0.00 14 1018.4
20190418195403 89 291 2.0 7.0 0.00 0.00 0.00 14 1018.4
20190418194904 89 191 2.0 7.0 0.00 0.00 0.00 15 1018.5
20190418194403 88 306 2.0 7.0 0.00 0.00 0.00 16 1018.6
20190418193903 87 349 1.0 6.0 0.00 0.00 0.00 16 1018.6
20190418193404 87 331 2.0 12.0 0.00 0.00 0.00 16 1018.7
20190418192904 86 281 5.0 12.0 0.00 0.00 0.00 15 1018.6
20190418192404 84 227 3.0 6.0 0.00 0.00 0.00 18 1018.7
20190418191903 84 140 2.0 5.0 0.00 0.00 0.00 20 1018.8
20190418191403 83 158 1.0 3.0 0.00 0.00 0.00 19 1019.0
20190418190903 83 214 1.0 6.0 0.00 0.00 0.00 20 1019.0
20190418190404 83 116 1.0 6.0 0.00 0.00 0.00 20 1019.0
20190418185904 82 216 2.0 6.0 0.00 0.00 0.00 21 1019.0
20190418185404 82 237 3.0 6.0 0.00 0.00 0.00 22 1019.1
20190418184903 82 119 1.0 7.0 0.00 0.00 0.00 23 1019.1
20190418184403 82 226 2.0 7.0 0.00 0.00 0.00 23 1019.3
20190418183903 81 160 3.0 7.0 0.00 0.00 0.00 25 1019.3
20190418183404 81 191 2.0 5.0 0.00 0.00 0.00 25 1019.4
20190418182903 81 197 2.0 5.0 0.00 0.00 0.00 24 1019.6
20190418182404 82 232 1.0 5.0 0.00 0.00 0.00 24 1019.6
20190418181903 82 205 1.0 6.0 0.00 0.00 0.00 26 1019.7
20190418181401 82 219 2.0 6.0 0.00 0.00 0.00 25 1019.8
20190418180901 81 270 1.0 6.0 0.00 0.00 0.00 26 1019.9
20190418180401 80 286 1.0 3.0 0.00 0.00 0.00 26 1019.9
20190418175901 80 213 2.0 3.0 0.00 0.00 0.00 26 1020.0
20190418175401 80 229 1.0 3.0 0.00 0.00 0.00 27 1020.1
20190418174901 80 252 2.0 3.0 0.00 0.00 0.00 28 1020.2
20190418174401 79 228 2.0 3.0 0.00 0.00 0.00 28 1020.2
20190418173901 78 329 2.0 5.0 0.00 0.00 0.00 29 1020.2
20190418173401 78 20 2.0 5.0 0.00 0.00 0.00 29 1020.2
20190418172901 77 28 2.0 5.0 0.00 0.00 0.00 29 1020.2
20190418172401 77 234 1.0 5.0 0.00 0.00 0.00 30 1020.2
20190418171901 77 228 2.0 5.0 0.00 0.00 0.00 30 1020.2
20190418171400 76 261 1.0 3.0 0.00 0.00 0.00 32 1020.2
20190418170900 76 227 2.0 5.0 0.00 0.00 0.00 32 1020.3
20190418170401 75 198 2.0 5.0 0.00 0.00 0.00 32 1020.3
20190418165901 75 231 2.0 3.0 0.00 0.00 0.00 33 1020.2
20190418165401 74 226 1.0 5.0 0.00 0.00 0.00 33 1020.2
20190418164901 74 226 2.0 5.0 0.00 0.00 0.00 33 1020.2
20190418164400 74 281 0.0 3.0 0.00 0.00 0.00 34 1020.2
20190418163901 74 273 1.0 3.0 0.00 0.00 0.00 37 1020.3
20190418163401 73 261 1.0 3.0 0.00 0.00 0.00 37 1020.3
20190418162901 72 251 2.0 3.0 0.00 0.00 0.00 37 1020.3
20190418162401 71 217 1.0 3.0 0.00 0.00 0.00 38 1020.2
20190418161902 71 241 2.0 3.0 0.00 0.00 0.00 39 1020.2
20190418161401 71 196 1.0 5.0 0.00 0.00 0.00 40 1020.2
20190418160901 70 142 2.0 5.0 0.00 0.00 0.00 41 1020.3
20190418160401 70 92 1.0 3.0 0.00 0.00 0.00 40 1020.3
20190418155901 70 90 1.0 3.0 0.00 0.00 0.00 41 1020.4
20190418155402 69 90 1.0 2.0 0.00 0.00 0.00 43 1020.4
20190418154901 69 90 0.0 2.0 0.00 0.00 0.00 44 1020.4
20190418154401 68 90 0.0 3.0 0.00 0.00 0.00 46 1020.3
20190418153901 68 90 1.0 3.0 0.00 0.00 0.00 45 1020.4
20190418153401 67 61 1.0 3.0 0.00 0.00 0.00 46 1020.3
20190418152901 66 22 1.0 3.0 0.00 0.00 0.00 48 1020.3
20190418152401 66 96 1.0 3.0 0.00 0.00 0.00 48 1020.4
20190418151901 65 114 1.0 3.0 0.00 0.00 0.00 50 1020.4
20190418151401 65 143 1.0 3.0 0.00 0.00 0.00 51 1020.4
20190418150901 64 72 1.0 3.0 0.00 0.00 0.00 52 1020.5
20190418150401 63 155 1.0 5.0 0.00 0.00 0.00 53 1020.4
20190418145901 63 161 1.0 5.0 0.00 0.00 0.00 54 1020.5
20190418145401 62 140 0.0 3.0 0.00 0.00 0.00 55 1020.6
20190418144901 62 140 0.0 5.0 0.00 0.00 0.00 56 1020.5
20190418144401 61 130 2.0 5.0 0.00 0.00 0.00 57 1020.5
20190418143901 61 80 1.0 3.0 0.00 0.00 0.00 58 1020.5
20190418143401 60 116 1.0 5.0 0.00 0.00 0.00 59 1020.4
20190418142901 60 109 1.0 5.0 0.00 0.00 0.00 60 1020.3
20190418142401 59 107 1.0 3.0 0.00 0.00 0.00 62 1020.3
20190418141901 58 103 0.0 3.0 0.00 0.00 0.00 64 1020.3
20190418141401 57 96 0.0 3.0 0.00 0.00 0.00 65 1020.3
20190418140901 56 95 1.0 3.0 0.00 0.00 0.00 67 1020.2
20190418140402 55 100 0.0 3.0 0.00 0.00 0.00 70 1020.0
20190418135902 54 100 1.0 3.0 0.00 0.00 0.00 72 1020.0
20190418135401 53 49 1.0 2.0 0.00 0.00 0.00 73 1019.8
20190418134901 52 49 0.0 2.0 0.00 0.00 0.00 74 1019.6
20190418134401 52 49 0.0 2.0 0.00 0.00 0.00 73 1019.5
20190418133901 52 49 0.0 1.0 0.00 0.00 0.00 74 1019.6
20190418133401 51 49 0.0 3.0 0.00 0.00 0.00 74 1019.7
20190418132901 51 49 1.0 3.0 0.00 0.00 0.00 74 1019.4
20190418132401 51 49 0.0 2.0 0.00 0.00 0.00 74 1019.5
20190418131902 51 49 0.0 2.0 0.00 0.00 0.00 74 1019.3
20190418131401 51 49 0.0 2.0 0.00 0.00 0.00 74 1019.2
20190418130901 51 49 0.0 2.0 0.00 0.00 0.00 74 1019.2
20190418130401 51 49 0.0 2.0 0.00 0.00 0.00 74 1019.1
20190418125901 51 49 0.0 2.0 0.00 0.00 0.00 74 1019.1
20190418125401 51 49 0.0 2.0 0.00 0.00 0.00 74 1018.9
20190418124902 51 49 0.0 2.0 0.00 0.00 0.00 74 1018.9
20190418124401 51 49 0.0 2.0 0.00 0.00 0.00 74 1018.9
20190418123901 51 49 0.0 2.0 0.00 0.00 0.00 74 1018.9
20190418123402 51 49 0.0 2.0 0.00 0.00 0.00 73 1018.8
20190418122901 51 49 0.0 3.0 0.00 0.00 0.00 73 1018.6
20190418122401 51 49 1.0 3.0 0.00 0.00 0.00 73 1018.5
20190418121901 52 49 0.0 3.0 0.00 0.00 0.00 73 1018.4
20190418121402 52 49 0.0 2.0 0.00 0.00 0.00 73 1018.4
20190418120903 52 49 0.0 3.0 0.00 0.00 0.00 73 1018.4
20190418120401 52 49 1.0 3.0 0.00 0.00 0.00 72 1018.3
20190418115901 52 49 0.0 1.0 0.00 0.00 0.00 72 1018.2
20190418115401 52 49 0.0 2.0 0.00 0.00 0.00 72 1018.2
20190418114901 52 49 0.0 2.0 0.00 0.01 0.00 72 1018.0
20190418114402 52 49 1.0 2.0 0.00 0.01 0.00 71 1018.0
20190418113902 52 49 0.0 2.0 0.00 0.01 0.00 71 1018.0
20190418113402 52 49 0.0 2.0 0.00 0.01 0.00 71 1018.0
20190418112901 53 49 0.0 2.0 0.00 0.01 0.00 71 1017.9
20190418112402 53 42 1.0 2.0 0.00 0.01 0.00 71 1017.9
20190418111902 53 42 0.0 2.0 0.00 0.01 0.00 70 1017.9
20190418111402 53 42 0.0 2.0 0.00 0.01 0.00 70 1017.9
20190418110902 53 42 0.0 2.0 0.00 0.01 0.00 70 1018.0
20190418110402 53 42 1.0 2.0 0.00 0.01 0.00 70 1017.9
20190418105901 53 42 1.0 2.0 0.00 0.01 0.00 69 1018.1
20190418105401 53 42 0.0 1.0 0.00 0.01 0.00 69 1018.2
20190418104901 53 42 0.0 1.0 0.00 0.01 0.00 69 1018.3
20190418104401 53 42 0.0 1.0 0.00 0.01 0.00 69 1018.1
20190418103904 54 42 0.0 2.0 0.00 0.01 0.00 68 1018.2
20190418103401 54 42 0.0 2.0 0.00 0.01 0.00 68 1018.2
20190418102901 54 42 0.0 1.0 0.00 0.01 0.00 68 1018.1
20190418102402 54 42 0.0 1.0 0.00 0.01 0.00 68 1018.1
20190418101902 54 42 0.0 1.0 0.00 0.01 0.00 67 1018.1
20190418101402 54 42 0.0 0.0 0.00 0.01 0.00 67 1018.3
20190418100902 54 42 0.0 0.0 0.00 0.01 0.00 67 1018.2
20190418100401 55 42 0.0 1.0 0.00 0.01 0.00 67 1018.2
20190418095902 55 42 0.0 1.0 0.00 0.01 0.00 67 1018.1
20190418095402 55 42 0.0 1.0 0.00 0.01 0.00 66 1018.2
20190418094902 55 42 0.0 1.0 0.00 0.01 0.00 66 1018.1
20190418094402 55 42 0.0 1.0 0.00 0.01 0.00 66 1018.1
20190418093903 55 42 0.0 2.0 0.00 0.01 0.00 66 1018.3
20190418093403 55 42 0.0 2.0 0.00 0.01 0.00 65 1018.3
20190418092901 55 42 0.0 3.0 0.00 0.01 0.00 65 1018.3
20190418092402 56 42 1.0 3.0 0.00 0.01 0.00 65 1018.4
20190418091901 56 42 1.0 2.0 0.00 0.01 0.00 65 1018.4
20190418091404 56 42 1.0 3.0 0.00 0.01 0.00 64 1018.4
20190418090902 56 24 1.0 3.0 0.00 0.01 0.00 64 1018.3
20190418090402 56 21 0.0 2.0 0.00 0.01 0.00 64 1018.3
20190418085901 56 21 0.0 2.0 0.00 0.01 0.00 64 1018.3
20190418085401 56 21 0.0 2.0 0.00 0.01 0.00 65 1018.3
20190418084902 56 21 0.0 1.0 0.00 0.01 0.00 65 1018.3
20190418084402 56 21 0.0 1.0 0.00 0.01 0.00 64 1018.4
20190418083902 56 21 0.0 0.0 0.00 0.01 0.00 64 1018.5
20190418083402 57 21 0.0 1.0 0.00 0.01 0.00 63 1018.6
20190418082902 57 21 0.0 1.0 0.00 0.01 0.00 63 1018.7
20190418082402 57 21 0.0 0.0 0.00 0.01 0.00 62 1018.7
20190418081902 57 21 0.0 0.0 0.00 0.01 0.00 60 1018.7
20190418081402 58 21 0.0 0.0 0.00 0.01 0.00 60 1018.8
20190418080902 58 21 0.0 0.0 0.00 0.01 0.00 59 1019.0
20190418080402 58 21 0.0 0.0 0.00 0.01 0.00 59 1018.9
20190418075902 58 21 0.0 0.0 0.00 0.01 0.00 59 1019.0
20190418075402 59 21 0.0 0.0 0.00 0.01 0.00 58 1019.0
20190418074902 59 21 0.0 0.0 0.00 0.01 0.00 58 1019.0
20190418074402 59 21 0.0 0.0 0.00 0.01 0.00 58 1019.1
20190418073902 59 21 0.0 1.0 0.00 0.01 0.00 58 1019.1
20190418073402 59 21 0.0 1.0 0.00 0.01 0.00 58 1019.2
20190418072902 59 21 0.0 0.0 0.00 0.01 0.00 58 1019.1
20190418072403 59 21 0.0 1.0 0.00 0.01 0.00 58 1019.1
20190418071901 59 21 0.0 2.0 0.00 0.01 0.00 57 1019.1
20190418071401 60 21 0.0 2.0 0.00 0.01 0.00 57 1019.0
20190418070902 60 21 1.0 2.0 0.00 0.01 0.00 56 1019.0
20190418070402 60 21 0.0 2.0 0.00 0.01 0.00 56 1019.0
20190418065902 60 21 0.0 2.0 0.00 0.01 0.01 55 1019.0
20190418065402 60 21 0.0 2.0 0.00 0.01 0.01 55 1018.9
20190418064902 60 21 1.0 2.0 0.00 0.01 0.01 55 1018.9
20190418064402 60 21 1.0 2.0 0.00 0.01 0.01 55 1018.8
20190418063902 60 21 1.0 2.0 0.00 0.01 0.01 54 1018.8
20190418063401 60 21 0.0 2.0 0.00 0.01 0.01 54 1018.7
20190418062902 60 21 0.0 2.0 0.00 0.01 0.01 54 1018.7
20190418062402 61 21 0.0 2.0 0.00 0.01 0.01 54 1018.7
20190418061902 61 19 0.0 2.0 0.00 0.01 0.01 54 1018.7
20190418061402 61 19 0.0 2.0 0.00 0.01 0.01 54 1018.6
20190418060902 61 19 0.0 3.0 0.00 0.01 0.01 54 1018.5
20190418060402 61 19 0.0 3.0 0.00 0.01 0.01 53 1018.5
20190418055902 61 19 1.0 3.0 0.00 0.01 0.01 53 1018.4
20190418055402 61 26 0.0 2.0 0.00 0.01 0.01 53 1018.4
20190418054902 62 26 0.0 2.0 0.00 0.01 0.01 52 1018.2
20190418054402 62 26 1.0 3.0 0.00 0.01 0.01 52 1018.2
20190418053902 62 26 1.0 3.0 0.00 0.01 0.01 52 1018.1
20190418053402 62 26 0.0 3.0 0.00 0.01 0.01 52 1018.1
20190418052902 62 26 1.0 3.0 0.00 0.01 0.01 52 1018.1
20190418052402 61 26 1.0 3.0 0.00 0.01 0.01 52 1018.0
20190418051903 61 23 1.0 3.0 0.00 0.01 0.01 52 1018.1
20190418051402 61 23 1.0 2.0 0.00 0.01 0.01 52 1018.1
20190418050902 62 23 0.0 2.0 0.00 0.01 0.01 52 1018.1
20190418050404 62 23 0.0 2.0 0.00 0.01 0.01 52 1018.1
20190418045903 62 23 1.0 3.0 0.00 0.01 0.01 52 1018.0
20190418045403 62 23 1.0 3.0 0.00 0.01 0.01 51 1018.0
20190418044902 62 7 1.0 3.0 0.00 0.01 0.01 51 1018.1
20190418044402 63 5 1.0 3.0 0.00 0.01 0.01 50 1017.9
20190418043902 63 5 0.0 1.0 0.00 0.01 0.01 49 1017.8
20190418043402 63 5 0.0 2.0 0.00 0.01 0.01 48 1017.8
20190418042902 63 5 0.0 2.0 0.00 0.01 0.01 48 1017.7
20190418042402 64 5 1.0 3.0 0.00 0.02 0.01 47 1017.9
20190418041903 64 5 1.0 3.0 0.00 0.02 0.01 47 1017.8
20190418041403 64 308 1.0 2.0 0.00 0.02 0.01 46 1017.7
20190418040903 64 298 0.0 2.0 0.00 0.02 0.01 46 1017.7
20190418040402 64 298 1.0 2.0 0.00 0.02 0.01 45 1017.7
20190418035902 65 298 0.0 2.0 0.00 0.02 0.01 44 1017.4
20190418035402 65 297 0.0 2.0 0.00 0.03 0.01 44 1017.4
20190418034903 65 297 0.0 2.0 0.00 0.04 0.01 43 1017.4
20190418034403 65 297 0.0 2.0 0.00 0.04 0.01 42 1017.3
20190418033903 66 297 0.0 2.0 0.00 0.05 0.01 42 1017.4
20190418033402 66 297 1.0 2.0 0.00 0.05 0.01 41 1017.3
20190418032902 66 297 0.0 2.0 0.00 0.05 0.01 41 1017.2
20190418032403 67 297 0.0 3.0 0.00 0.05 0.01 40 1017.1
20190418031902 67 297 1.0 3.0 0.00 0.05 0.01 40 1017.1
20190418031402 67 297 1.0 3.0 0.00 0.05 0.01 39 1017.0
20190418030903 67 296 1.0 3.0 0.00 0.05 0.01 39 1017.0
20190418030402 68 296 0.0 2.0 0.00 0.05 0.01 38 1017.1
20190418025903 68 296 1.0 2.0 0.00 0.05 0.01 38 1016.9
20190418025403 68 296 0.0 2.0 0.00 0.05 0.01 38 1016.8
20190418024903 68 296 0.0 2.0 0.00 0.05 0.01 37 1016.7
20190418024403 69 295 1.0 2.0 0.00 0.05 0.01 37 1016.6
20190418023902 69 295 0.0 1.0 0.00 0.05 0.01 36 1016.5
20190418023403 69 295 0.0 1.0 0.00 0.05 0.01 36 1016.5
20190418022902 69 295 0.0 1.0 0.00 0.05 0.01 36 1016.5
20190418022403 70 295 0.0 3.0 0.00 0.05 0.01 35 1016.4
20190418021903 70 294 0.0 3.0 0.00 0.05 0.01 35 1016.3
20190418021403 70 294 1.0 5.0 0.00 0.05 0.01 35 1016.3
20190418020903 70 303 0.0 5.0 0.00 0.05 0.01 35 1016.1
20190418020402 70 305 1.0 5.0 0.00 0.05 0.01 34 1016.1
20190418015902 71 317 1.0 3.0 0.00 0.05 0.01 34 1016.1
20190418015402 71 272 1.0 6.0 0.00 0.05 0.01 34 1016.1
20190418014902 71 302 1.0 6.0 0.00 0.05 0.01 33 1016.0
20190418014402 71 289 2.0 5.0 0.00 0.05 0.01 33 1015.9
20190418013902 71 305 1.0 6.0 0.00 0.05 0.01 33 1015.8
20190418013403 71 238 2.0 6.0 0.00 0.05 0.01 33 1015.9
20190418012903 72 302 2.0 7.0 0.00 0.05 0.01 33 1015.8
20190418012403 72 274 2.0 7.0 0.00 0.05 0.01 33 1015.9
20190418011902 72 259 3.0 7.0 0.00 0.05 0.01 32 1015.8
20190418011403 72 265 3.0 7.0 0.00 0.05 0.01 32 1015.8
20190418010902 72 289 2.0 8.0 0.00 0.05 0.01 32 1015.8
20190418010403 72 260 5.0 8.0 0.00 0.05 0.01 32 1015.8
20190418005902 73 295 2.0 8.0 0.00 0.05 0.01 32 1015.7
20190418005403 73 272 3.0 8.0 0.00 0.05 0.01 32 1015.8
20190418004903 73 223 2.0 6.0 0.00 0.05 0.01 32 1015.8
20190418004402 73 281 2.0 6.0 0.00 0.05 0.01 32 1015.7
20190418003902 73 291 3.0 8.0 0.00 0.05 0.01 32 1015.7
20190418003403 73 279 2.0 8.0 0.00 0.05 0.01 32 1015.7
20190418002903 74 319 4.0 8.0 0.00 0.05 0.01 32 1015.6
20190418002403 74 260 3.0 10.0 0.00 0.05 0.01 31 1015.6
20190418001903 74 243 5.0 10.0 0.00 0.05 0.01 31 1015.6
20190418001403 74 290 3.0 7.0 0.00 0.05 0.01 31 1015.6
20190418000903 74 268 3.0 8.0 0.00 0.05 0.01 30 1015.6
20190418000405 75 26 2.0 9.0 0.00 0.05 0.01 30 1015.5
20190417235903 75 279 3.0 9.0 0.00 0.05 0.01 30 1015.6
20190417235403 75 269 3.0 8.0 0.00 0.05 0.01 30 1015.6
20190417234903 76 220 3.0 8.0 0.00 0.05 0.01 30 1015.6
20190417234403 76 254 3.0 9.0 0.00 0.05 0.01 30 1015.5
20190417233902 76 314 3.0 9.0 0.00 0.05 0.01 30 1015.4
20190417233405 76 302 2.0 9.0 0.00 0.05 0.01 29 1015.4
20190417232903 77 188 3.0 9.0 0.00 0.05 0.01 29 1015.4
20190417232403 77 218 2.0 10.0 0.00 0.05 0.01 28 1015.4
20190417231903 77 251 3.0 10.0 0.00 0.05 0.01 29 1015.4
20190417231402 77 265 2.0 8.0 0.00 0.05 0.01 28 1015.5
20190417230903 77 304 2.0 8.0 0.00 0.05 0.01 29 1015.4
20190417230404 77 300 3.0 9.0 0.00 0.05 0.01 28 1015.6
20190417225902 78 306 3.0 9.0 0.00 0.05 0.01 29 1015.6
20190417225402 78 320 4.0 9.0 0.00 0.05 0.01 28 1015.7
20190417224902 78 268 3.0 8.0 0.00 0.05 0.01 28 1015.7
20190417224402 78 266 4.0 8.0 0.00 0.05 0.01 28 1015.7
20190417223903 78 252 3.0 12.0 0.00 0.05 0.01 28 1015.7
20190417223403 77 229 2.0 12.0 0.00 0.05 0.01 28 1015.7
20190417222903 77 288 1.0 7.0 0.00 0.05 0.01 28 1015.6
20190417222403 77 302 2.0 7.0 0.00 0.05 0.01 28 1015.7
20190417221903 77 315 3.0 9.0 0.00 0.05 0.01 29 1015.6
20190417221404 77 281 4.0 9.0 0.00 0.05 0.01 29 1015.6
20190417220903 78 220 3.0 7.0 0.00 0.05 0.01 28 1015.8
20190417220403 77 289 1.0 6.0 0.00 0.05 0.01 29 1015.7
20190417215903 77 252 1.0 6.0 0.00 0.05 0.01 29 1015.9
20190417215403 77 243 3.0 12.0 0.00 0.05 0.01 29 1016.0
20190417214902 77 293 3.0 12.0 0.00 0.05 0.01 30 1016.0
20190417214403 77 270 5.0 12.0 0.00 0.05 0.01 29 1016.0
20190417213903 76 332 2.0 6.0 0.00 0.05 0.01 30 1016.1
20190417213403 76 308 1.0 12.0 0.00 0.05 0.01 30 1016.1
20190417212903 76 235 2.0 12.0 0.00 0.05 0.01 31 1016.3
20190417212403 76 246 2.0 10.0 0.00 0.05 0.01 32 1016.3
20190417211903 76 358 5.0 10.0 0.00 0.05 0.01 31 1016.3
20190417211402 76 327 2.0 7.0 0.00 0.05 0.01 31 1016.4
20190417210903 76 316 1.0 10.0 0.00 0.05 0.01 31 1016.5
20190417210404 77 254 3.0 10.0 0.00 0.05 0.01 31 1016.5
20190417205904 76 269 4.0 9.0 0.00 0.05 0.01 31 1016.4
20190417205403 76 260 2.0 7.0 0.00 0.05 0.01 31 1016.5
20190417204903 76 296 2.0 7.0 0.00 0.05 0.01 32 1016.6
20190417204403 75 260 3.0 7.0 0.00 0.05 0.01 32 1016.5